Regional Weather Roundup
Issued by NWS Newport/Morehead, NC

Current Version | Previous Version | Text Only | Print | Product List | Glossary Off
Versions: 1 2 3 4 5 6 7 8 9 10 11 12 13 14 15 16 17 18 19 20 21 22 23 24 25 26 27 28 29 30 31 32 33 34 35 36 37 38 39 40 41 42 43 44 45 46 47 48 49 50
000 ASUS42 KMHX 300413 RWRMHX WEATHER ROUNDUP FOR EASTERN NORTH CAROLINA NATIONAL WEATHER SERVICE NEWPORT/MOREHEAD CITY NC 1200 AM EDT TUE JUN 30 2015 NOTE: "FAIR" INDICATES FEW OR NO CLOUDS BELOW 12,000 FEET WITH NO SIGNIFICANT WEATHER AND/OR OBSTRUCTIONS TO VISIBILITY NCZ015>017-031-032-045>047-102-103-300500- NORTH COAST CITY SKY/WX TMP DP RH WIND PRES REMARKS EDENTON CLOUDY 77 71 81 SE6 29.97S ELIZABETH CITY PTCLDY 75 71 87 SE7 29.97F KITTY HAWK PTCLDY 74 69 85 CALM 29.98S MANTEO PTCLDY 73 71 92 CALM 29.99S $$ NCZ045>047-081-094-103-104-300500- CENTRAL COAST CITY SKY/WX TMP DP RH WIND PRES REMARKS FRISCO PTCLDY 77 73 87 CALM 29.99R SWANQUARTER N/A 79 N/A N/A SW7G13 29.94S $$ NCZ095-097-098-100-101-300500- SOUTHERN COAST CITY SKY/WX TMP DP RH WIND PRES REMARKS BEAUFORT PTCLDY 79 73 82 SW9 29.99R CEDAR ISLAND N/A 77 N/A N/A S3 30.03R JACKSONVILLE CLEAR 75 69 81 SW3 29.98R PINEY ISLAND CLEAR N/A N/A N/A S3 29.98R WILMINGTON CLEAR 77 70 79 S7 29.98R $$ NCZ011>013-027>030-043-044-078>080-089-090>093-098-300500- COASTAL PLAIN CITY SKY/WX TMP DP RH WIND PRES REMARKS AHOSKIE CLEAR 68 65 91 CALM 29.97S CLINTON CLEAR 73 71 93 CALM 29.97S ELIZABETHTOWN CLEAR 74 69 83 CALM 29.97S GOLDSBORO CLEAR 75 71 89 S3 29.95S GREENVILLE CLEAR 73 68 83 S5 29.99S HAVELOCK CLEAR 75 71 87 SW5 29.99R KENANSVILLE CLEAR 71 69 94 CALM 29.98S KINSTON CLEAR 74 71 91 S5 29.98S NEW BERN CLEAR 75 72 90 S5 29.99R RICHLANDS CLEAR 72 66 83 SW3 29.98S ROCKY MOUNT CLEAR 72 67 84 CALM 29.96F WASHINGTON CLEAR 75 69 81 S3 29.98S WHITEVILLE CLEAR 74 69 82 SW3 29.97S $$ AMZ130-135-150-152-154-156-158-170-250-252-270-ANZ085-086-088-633-658-670-300500- MARINE OBSERVATIONS STATION/POSITION TIME TEMP WIND PRES WAVE SWELL AIR SEA DIR/SP/G HT/PER HT/PER (UTC) (F) (DEG/KT/KT) (MB) (FT/S) (FT/S) CHESAPEAKE LIGHT 0400 76 150/ 12/ 12 1015.7 64 E VA BEACH 0350 76 75 110/ 8/ 10 1015.2 4/ 8 3/ 8 DUCK 0300 74 69 140/ 5/ 7 1014.4 2 E DUCK 0311 74 N/A 2/ 8 OREGON INLET 0300 73 75 90/ 3/ 4 1015.3 13E OREGON INLT 0400 75 N/A 4/ 8 HATTERAS CG 0300 79 81 240/ 2/ 3 1015.0 DIAMOND BUOY 0350 80 80 250/ 10/ 12 1015.3 4/ 8 3/ 8 CAPE LOOKOUT 0400 79 230/ 6/ 11 1015.3 BEAUFORT LAB 0300 79 81 230/ 4/ 10 1014.4 30 SE NEW RVR IN 0308 81 81 240/ 14/ 17 1015.5 27 SE WRIGHTSVLE 0300 81 240/ 16/ 17 N/A 5 SE WRIGHTSVLE 0308 80 79 230/ 14/ 16 1015.0 225 S CAPE HAT 0350 79 80 240/ 14/ 16 1018.2 6/ 7 3/ 7 41 SE CHARLESTON 0350 82 83 220/ 16/ 17 1015.4 4/ 8 3/ 8 $$

USA.gov is the U.S. government's official web portal to all federal, state and local government web resources and services.